Time,TemperatureF,DewpointF,PressureIn,WindDirection,WindDirectionDegrees,WindSpeedMPH,WindSpeedGustMPH,Humidity,HourlyPrecipIn,Conditions,Clouds,dailyrainin,SoftwareType,DateUTC
2013-02-14 00:02:00,34.0,33.0,29.69,NW,307,7.0,17.0,95,0.00,,,0.04,,2013-02-14 05:02:00,
2013-02-14 00:11:00,34.0,33.0,29.69,NW,307,7.0,17.0,95,0.00,,,0.04,,2013-02-14 05:11:00,
2013-02-14 00:22:00,34.0,33.0,29.69,NW,307,7.0,17.0,95,0.00,,,0.04,,2013-02-14 05:22:00,
2013-02-14 00:52:00,34.0,33.0,29.71,North,5,11.0,17.0,96,0.02,,,0.06,,2013-02-14 05:52:00,
2013-02-14 01:02:00,34.0,33.0,29.71,North,5,11.0,17.0,96,0.02,,,0.06,,2013-02-14 06:02:00,
2013-02-14 01:11:00,34.0,33.0,29.72,North,349,9.0,15.0,96,0.00,,,0.06,,2013-02-14 06:11:00,
2013-02-14 01:21:00,34.0,33.0,29.72,North,349,9.0,15.0,96,0.00,,,0.06,,2013-02-14 06:21:00,
2013-02-14 01:32:00,34.0,33.0,29.72,North,349,9.0,15.0,96,0.00,,,0.06,,2013-02-14 06:32:00,
2013-02-14 01:42:00,34.0,33.0,29.72,North,349,9.0,15.0,96,0.00,,,0.06,,2013-02-14 06:42:00,
2013-02-14 01:52:00,34.0,33.0,29.75,NW,314,6.0,13.0,96,0.00,,,0.06,,2013-02-14 06:52:00,
2013-02-14 02:01:00,34.0,33.0,29.75,NW,314,6.0,13.0,96,0.00,,,0.06,,2013-02-14 07:01:00,
2013-02-14 02:11:00,34.0,33.0,29.75,NW,314,6.0,13.0,96,0.00,,,0.06,,2013-02-14 07:11:00,
2013-02-14 02:21:00,35.0,34.0,29.77,NE,36,8.0,11.0,96,0.00,,,0.06,,2013-02-14 07:21:00,
2013-02-14 02:32:00,35.0,34.0,29.77,NE,36,8.0,11.0,96,0.00,,,0.06,,2013-02-14 07:32:00,
2013-02-14 02:42:00,35.0,34.0,29.77,NE,36,8.0,11.0,96,0.00,,,0.06,,2013-02-14 07:42:00,
2013-02-14 02:52:00,35.0,34.0,29.79,NNW,333,8.0,12.0,96,0.00,,,0.06,,2013-02-14 07:52:00,
2013-02-14 03:01:00,35.0,34.0,29.79,NNW,333,8.0,12.0,96,0.00,,,0.06,,2013-02-14 08:01:00,
2013-02-14 03:11:00,35.0,34.0,29.79,NNW,333,8.0,12.0,96,0.00,,,0.06,,2013-02-14 08:11:00,
2013-02-14 03:22:00,35.0,34.0,29.81,NW,308,4.0,11.0,96,0.00,,,0.06,,2013-02-14 08:22:00,
2013-02-14 03:32:00,35.0,34.0,29.81,NW,308,4.0,11.0,96,0.00,,,0.06,,2013-02-14 08:32:00,
2013-02-14 03:43:00,35.0,34.0,29.81,NW,308,4.0,11.0,96,0.00,,,0.06,,2013-02-14 08:43:00,
2013-02-14 03:52:00,35.0,34.0,29.82,NW,311,5.0,11.0,96,0.00,,,0.06,,2013-02-14 08:52:00,
2013-02-14 04:02:00,35.0,34.0,29.82,NW,311,5.0,11.0,96,0.00,,,0.06,,2013-02-14 09:02:00,
2013-02-14 04:11:00,35.0,34.0,29.82,NW,311,5.0,11.0,96,0.00,,,0.06,,2013-02-14 09:11:00,
2013-02-14 04:21:00,35.0,34.0,29.83,NW,305,5.0,8.0,96,0.00,,,0.06,,2013-02-14 09:21:00,
2013-02-14 04:32:00,35.0,34.0,29.83,NW,305,5.0,8.0,96,0.00,,,0.06,,2013-02-14 09:32:00,
2013-02-14 04:42:00,35.0,34.0,29.83,NW,305,5.0,8.0,96,0.00,,,0.06,,2013-02-14 09:42:00,
2013-02-14 04:52:00,35.0,34.0,29.84,West,271,2.0,8.0,96,0.00,,,0.06,,2013-02-14 09:52:00,
2013-02-14 05:02:00,35.0,34.0,29.84,West,271,2.0,8.0,96,0.00,,,0.06,,2013-02-14 10:02:00,
2013-02-14 05:11:00,35.0,34.0,29.87,WNW,295,3.0,8.0,96,0.00,,,0.06,,2013-02-14 10:11:00,
2013-02-14 05:21:00,35.0,34.0,29.87,WNW,295,3.0,8.0,96,0.00,,,0.06,,2013-02-14 10:21:00,
2013-02-14 05:32:00,35.0,34.0,29.87,WNW,295,3.0,8.0,96,0.00,,,0.06,,2013-02-14 10:32:00,
2013-02-14 05:42:00,35.0,34.0,29.87,WNW,295,3.0,8.0,96,0.00,,,0.06,,2013-02-14 10:42:00,
2013-02-14 05:52:00,35.0,34.0,29.88,West,266,1.0,8.0,96,0.00,,,0.06,,2013-02-14 10:52:00,
2013-02-14 06:02:00,35.0,34.0,29.88,West,266,1.0,8.0,96,0.00,,,0.06,,2013-02-14 11:02:00,
2013-02-14 06:11:00,35.0,34.0,29.88,West,266,1.0,8.0,96,0.00,,,0.06,,2013-02-14 11:11:00,
2013-02-14 06:22:00,34.0,33.0,29.90,North,1,1.0,6.0,96,0.00,,,0.06,,2013-02-14 11:22:00,
2013-02-14 06:32:00,34.0,33.0,29.90,North,1,1.0,6.0,96,0.00,,,0.06,,2013-02-14 11:32:00,
2013-02-14 06:42:00,34.0,33.0,29.90,North,1,1.0,6.0,96,0.00,,,0.06,,2013-02-14 11:42:00,
2013-02-14 06:52:00,34.0,33.0,29.90,West,273,2.0,6.0,96,0.00,,,0.06,,2013-02-14 11:52:00,
2013-02-14 07:02:00,34.0,33.0,29.90,West,273,2.0,6.0,96,0.00,,,0.06,,2013-02-14 12:02:00,
2013-02-14 07:12:00,34.0,33.0,29.90,West,273,2.0,6.0,96,0.00,,,0.06,,2013-02-14 12:12:00,
2013-02-14 07:22:00,34.0,33.0,29.93,WSW,251,5.0,7.0,97,0.00,,,0.06,,2013-02-14 12:22:00,
2013-02-14 07:32:00,34.0,33.0,29.93,WSW,251,5.0,7.0,97,0.00,,,0.06,,2013-02-14 12:32:00,
2013-02-14 07:42:00,34.0,33.0,29.93,WSW,251,5.0,7.0,97,0.00,,,0.06,,2013-02-14 12:42:00,
2013-02-14 07:53:00,35.0,34.0,29.95,WNW,286,3.0,9.0,96,0.00,,,0.06,,2013-02-14 12:53:00,
2013-02-14 08:02:00,35.0,34.0,29.95,WNW,286,3.0,9.0,96,0.00,,,0.06,,2013-02-14 13:02:00,
2013-02-14 08:11:00,35.0,34.0,29.95,WNW,286,3.0,9.0,96,0.00,,,0.06,,2013-02-14 13:11:00,
2013-02-14 08:21:00,35.0,34.0,29.96,SW,233,2.0,7.0,96,0.00,,,0.06,,2013-02-14 13:21:00,
2013-02-14 08:32:00,35.0,34.0,29.96,SW,233,2.0,7.0,96,0.00,,,0.06,,2013-02-14 13:32:00,
2013-02-14 08:42:00,35.0,34.0,29.96,SW,233,2.0,7.0,96,0.00,,,0.06,,2013-02-14 13:42:00,
2013-02-14 08:52:00,36.0,35.0,29.98,WNW,294,4.0,8.0,96,0.00,,,0.06,,2013-02-14 13:52:00,
2013-02-14 09:01:00,36.0,35.0,29.98,WNW,294,4.0,8.0,96,0.00,,,0.06,,2013-02-14 14:01:00,
2013-02-14 09:11:00,36.0,35.0,29.98,WNW,294,4.0,8.0,96,0.00,,,0.06,,2013-02-14 14:11:00,
2013-02-14 09:21:00,36.0,34.0,29.98,WNW,290,4.0,10.0,94,0.00,,,0.06,,2013-02-14 14:21:00,
2013-02-14 09:32:00,36.0,34.0,29.98,WNW,290,4.0,10.0,94,0.00,,,0.06,,2013-02-14 14:32:00,
2013-02-14 09:42:00,36.0,34.0,29.98,WNW,290,4.0,10.0,94,0.00,,,0.06,,2013-02-14 14:42:00,
2013-02-14 09:52:00,37.0,35.0,29.98,WNW,287,1.0,8.0,93,0.00,,,0.06,,2013-02-14 14:52:00,
2013-02-14 10:02:00,37.0,35.0,29.98,WNW,287,1.0,8.0,93,0.00,,,0.06,,2013-02-14 15:02:00,
2013-02-14 10:11:00,37.0,35.0,29.98,WNW,287,1.0,8.0,93,0.00,,,0.06,,2013-02-14 15:11:00,
2013-02-14 10:21:00,38.0,36.0,29.99,NW,311,2.0,9.0,91,0.00,,,0.06,,2013-02-14 15:21:00,
2013-02-14 10:32:00,38.0,36.0,29.99,NW,311,2.0,9.0,91,0.00,,,0.06,,2013-02-14 15:32:00,
2013-02-14 10:42:00,38.0,36.0,29.99,NW,311,2.0,9.0,91,0.00,,,0.06,,2013-02-14 15:42:00,
2013-02-14 10:52:00,40.0,37.0,29.99,WSW,255,4.0,10.0,89,0.00,,,0.06,,2013-02-14 15:52:00,
2013-02-14 11:02:00,40.0,37.0,29.99,WSW,255,4.0,10.0,89,0.00,,,0.06,,2013-02-14 16:02:00,
2013-02-14 11:11:00,40.0,37.0,29.99,WSW,255,4.0,10.0,89,0.00,,,0.06,,2013-02-14 16:11:00,
2013-02-14 11:21:00,41.0,37.0,30.00,WNW,301,4.0,8.0,85,0.00,,,0.06,,2013-02-14 16:21:00,
2013-02-14 11:32:00,41.0,37.0,30.00,WNW,301,4.0,8.0,85,0.00,,,0.06,,2013-02-14 16:32:00,
2013-02-14 11:42:00,41.0,37.0,30.00,WNW,301,4.0,8.0,85,0.00,,,0.06,,2013-02-14 16:42:00,
2013-02-14 11:52:00,42.0,38.0,29.99,WNW,284,1.0,7.0,84,0.00,,,0.06,,2013-02-14 16:52:00,
2013-02-14 12:01:00,42.0,38.0,29.99,WNW,284,1.0,7.0,84,0.00,,,0.06,,2013-02-14 17:01:00,
2013-02-14 12:11:00,42.0,38.0,29.99,WNW,284,1.0,7.0,84,0.00,,,0.06,,2013-02-14 17:11:00,
2013-02-14 12:21:00,43.0,37.0,29.98,WNW,291,2.0,7.0,80,0.00,,,0.06,,2013-02-14 17:21:00,
2013-02-14 12:32:00,43.0,37.0,29.98,WNW,291,2.0,7.0,80,0.00,,,0.06,,2013-02-14 17:32:00,
2013-02-14 12:42:00,43.0,37.0,29.98,WNW,291,2.0,7.0,80,0.00,,,0.06,,2013-02-14 17:42:00,
2013-02-14 12:52:00,45.0,39.0,29.98,SW,232,1.0,5.0,79,0.00,,,0.06,,2013-02-14 17:52:00,
2013-02-14 13:01:00,45.0,39.0,29.98,SW,232,1.0,5.0,79,0.00,,,0.06,,2013-02-14 18:01:00,
2013-02-14 13:11:00,45.0,39.0,29.98,SW,232,1.0,5.0,79,0.00,,,0.06,,2013-02-14 18:11:00,
2013-02-14 13:23:00,42.0,38.0,29.98,SSE,150,7.0,10.0,86,0.00,,,0.06,,2013-02-14 18:23:00,
2013-02-14 13:32:00,42.0,38.0,29.98,SSE,150,7.0,10.0,86,0.00,,,0.06,,2013-02-14 18:32:00,
2013-02-14 13:42:00,42.0,38.0,29.98,SSE,150,7.0,10.0,86,0.00,,,0.06,,2013-02-14 18:42:00,
2013-02-14 13:52:00,41.0,37.0,29.98,SSE,149,7.0,15.0,86,0.00,,,0.06,,2013-02-14 18:52:00,
2013-02-14 14:02:00,41.0,37.0,29.98,SSE,149,7.0,15.0,86,0.00,,,0.06,,2013-02-14 19:02:00,
2013-02-14 14:11:00,41.0,37.0,29.98,SSE,149,7.0,15.0,86,0.00,,,0.06,,2013-02-14 19:11:00,
2013-02-14 14:22:00,42.0,39.0,29.98,SSW,203,3.0,16.0,88,0.00,,,0.06,,2013-02-14 19:22:00,
2013-02-14 14:32:00,42.0,39.0,29.98,SSW,203,3.0,16.0,88,0.00,,,0.06,,2013-02-14 19:32:00,
2013-02-14 14:42:00,42.0,39.0,29.98,SSW,203,3.0,16.0,88,0.00,,,0.06,,2013-02-14 19:42:00,
2013-02-14 14:52:00,44.0,39.0,29.98,SSW,205,7.0,9.0,82,0.00,,,0.06,,2013-02-14 19:52:00,
2013-02-14 15:01:00,44.0,39.0,29.98,SSW,205,7.0,9.0,82,0.00,,,0.06,,2013-02-14 20:01:00,
2013-02-14 15:11:00,46.0,37.0,29.98,WSW,249,3.0,11.0,72,0.00,,,0.06,,2013-02-14 20:11:00,
2013-02-14 15:21:00,46.0,37.0,29.98,WSW,249,3.0,11.0,72,0.00,,,0.06,,2013-02-14 20:21:00,
2013-02-14 15:31:00,45.0,36.0,29.99,WSW,244,6.0,11.0,70,0.00,,,0.06,,2013-02-14 20:31:00,
2013-02-14 15:32:00,46.0,37.0,29.98,WSW,249,3.0,11.0,72,0.00,,,0.06,,2013-02-14 20:32:00,
2013-02-14 15:42:00,46.0,37.0,29.98,WSW,249,3.0,11.0,72,0.00,,,0.06,,2013-02-14 20:42:00,
2013-02-14 15:52:00,45.0,36.0,29.99,WSW,244,6.0,11.0,70,0.00,,,0.06,,2013-02-14 20:52:00,
2013-02-14 16:02:00,45.0,36.0,29.99,WSW,244,6.0,11.0,70,0.00,,,0.06,,2013-02-14 21:02:00,
2013-02-14 16:11:00,45.0,36.0,29.99,WSW,244,6.0,11.0,70,0.00,,,0.06,,2013-02-14 21:11:00,
2013-02-14 16:21:00,45.0,36.0,29.99,WSW,244,6.0,11.0,70,0.00,,,0.06,,2013-02-14 21:21:00,
2013-02-14 17:01:00,44.0,36.0,30.00,West,261,2.0,9.0,72,0.00,,,0.06,,2013-02-14 22:01:00,
2013-02-14 17:02:00,46.0,36.0,29.99,WSW,248,5.0,13.0,69,0.00,,,0.06,,2013-02-14 22:02:00,
2013-02-14 17:11:00,46.0,36.0,29.99,WSW,248,5.0,13.0,69,0.00,,,0.06,,2013-02-14 22:11:00,
2013-02-14 17:21:00,44.0,36.0,30.00,West,261,2.0,9.0,72,0.00,,,0.06,,2013-02-14 22:21:00,
2013-02-14 17:32:00,44.0,36.0,30.00,West,261,2.0,9.0,72,0.00,,,0.06,,2013-02-14 22:32:00,
2013-02-14 17:42:00,44.0,36.0,30.00,West,261,2.0,9.0,72,0.00,,,0.06,,2013-02-14 22:42:00,
2013-02-14 17:52:00,44.0,36.0,30.00,West,261,2.0,9.0,72,0.00,,,0.06,,2013-02-14 22:52:00,
2013-02-14 18:01:00,40.0,36.0,30.02,SSW,200,2.0,7.0,87,0.00,,,0.06,,2013-02-14 23:01:00,
2013-02-14 18:22:00,40.0,36.0,30.02,SSW,200,2.0,7.0,87,0.00,,,0.06,,2013-02-14 23:22:00,
2013-02-14 18:32:00,40.0,36.0,30.02,SSW,200,2.0,7.0,87,0.00,,,0.06,,2013-02-14 23:32:00,
2013-02-14 18:42:00,40.0,36.0,30.02,SSW,200,2.0,7.0,87,0.00,,,0.06,,2013-02-14 23:42:00,
2013-02-14 18:52:00,40.0,36.0,30.02,SSW,200,2.0,7.0,87,0.00,,,0.06,,2013-02-14 23:52:00,
2013-02-14 19:01:00,39.0,36.0,30.04,ESE,117,0.0,10.0,88,0.00,,,0.04,,2013-02-15 00:01:00,
2013-02-14 19:22:00,39.0,36.0,30.04,ESE,117,0.0,10.0,88,0.00,,,0.04,,2013-02-15 00:22:00,
2013-02-14 19:32:00,39.0,36.0,30.04,ESE,117,0.0,10.0,88,0.00,,,0.04,,2013-02-15 00:32:00,
2013-02-14 19:42:00,39.0,36.0,30.04,ESE,117,0.0,10.0,88,0.00,,,0.04,,2013-02-15 00:42:00,
2013-02-14 19:52:00,39.0,36.0,30.04,ESE,117,0.0,10.0,88,0.00,,,0.04,,2013-02-15 00:52:00,
2013-02-14 20:21:00,39.0,36.0,30.04,South,176,4.0,7.0,90,0.00,,,0.04,,2013-02-15 01:21:00,
2013-02-14 20:32:00,39.0,36.0,30.04,South,176,4.0,7.0,90,0.00,,,0.04,,2013-02-15 01:32:00,
2013-02-14 20:42:00,39.0,36.0,30.04,South,176,4.0,7.0,90,0.00,,,0.04,,2013-02-15 01:42:00,
2013-02-14 20:52:00,39.0,37.0,30.04,SE,137,2.0,7.0,92,0.00,,,0.02,,2013-02-15 01:52:00,
2013-02-14 21:01:00,39.0,37.0,30.04,SE,137,2.0,7.0,92,0.00,,,0.02,,2013-02-15 02:01:00,
2013-02-14 21:11:00,39.0,37.0,30.04,SE,137,2.0,7.0,92,0.00,,,0.02,,2013-02-15 02:11:00,
2013-02-14 21:21:00,39.0,37.0,30.04,SW,233,4.0,8.0,92,0.00,,,0.02,,2013-02-15 02:21:00,
2013-02-14 21:32:00,39.0,37.0,30.04,SW,233,4.0,8.0,92,0.00,,,0.02,,2013-02-15 02:32:00,
2013-02-14 21:42:00,39.0,37.0,30.04,SW,233,4.0,8.0,92,0.00,,,0.02,,2013-02-15 02:42:00,
2013-02-14 21:52:00,39.0,37.0,30.05,SW,218,2.0,9.0,93,0.00,,,0.02,,2013-02-15 02:52:00,
2013-02-14 22:02:00,39.0,37.0,30.05,SW,218,2.0,9.0,93,0.00,,,0.02,,2013-02-15 03:02:00,
2013-02-14 22:11:00,39.0,37.0,30.05,SW,218,2.0,9.0,93,0.00,,,0.02,,2013-02-15 03:11:00,
2013-02-14 22:22:00,39.0,37.0,30.05,SSW,200,3.0,10.0,93,0.00,,,0.02,,2013-02-15 03:22:00,
2013-02-14 22:32:00,39.0,37.0,30.05,SSW,200,3.0,10.0,93,0.00,,,0.02,,2013-02-15 03:32:00,
2013-02-14 22:42:00,39.0,37.0,30.05,SSW,200,3.0,10.0,93,0.00,,,0.02,,2013-02-15 03:42:00,
2013-02-14 22:52:00,39.0,37.0,30.05,SW,221,2.0,11.0,92,0.00,,,0.02,,2013-02-15 03:52:00,
2013-02-14 23:01:00,39.0,37.0,30.05,SW,221,2.0,11.0,92,0.00,,,0.02,,2013-02-15 04:01:00,
2013-02-14 23:11:00,39.0,37.0,30.05,SW,221,2.0,11.0,92,0.00,,,0.02,,2013-02-15 04:11:00,
2013-02-14 23:21:00,39.0,37.0,30.05,South,190,3.0,7.0,93,0.00,,,0.02,,2013-02-15 04:21:00,
2013-02-14 23:32:00,39.0,37.0,30.05,South,190,3.0,7.0,93,0.00,,,0.02,,2013-02-15 04:32:00,
2013-02-14 23:42:00,39.0,37.0,30.05,South,190,3.0,7.0,93,0.00,,,0.02,,2013-02-15 04:42:00,
2013-02-14 23:52:00,39.0,37.0,30.06,SW,224,4.0,8.0,94,0.00,,,0.02,,2013-02-15 04:52:00,